Preview of NWS' New Version of Forecast
This preview is not operational and should not be used for support decisions.

Regional Weather Roundup (RWR)

Issued by National Weather Service (NWS)

                            
000
ASUS43 KMKX 182020
RWRWI 

WISCONSIN REGIONAL WEATHER ROUNDUP
NATIONAL WEATHER SERVICE MILWAUKEE/SULLIVAN WI
200 PM CST FRI JAN 18 2019

NOTE: "FAIR" INDICATES FEW OR NO CLOUDS BELOW 12,000 FEET WITH NO
SIGNIFICANT WEATHER AND/OR OBSTRUCTIONS TO VISIBILITY.

WIZ001-002-006>008-014>016-023>028-182100-
NORTHWEST WISCONSIN
  
CITY           SKY/WX    TMP DP  RH WIND       PRES   REMARKS
SUPERIOR ARPT  CLOUDY     2 -11  53 N5        30.37S WCI  -8          
ASHLAND        FAIR       5  -4  66 N10       30.33S WCI -10          
HAYWARD        PTSUNNY    7  -3  64 NE7       30.26F WCI  -5          
SIREN          CLOUDY     5  -5  62 NE8       30.28F WCI  -8          
CUMBERLAND     CLOUDY     7  -4  61 N8        30.23S WCI  -6          
RICE LAKE      FAIR       9  -1  63 N9        30.26S WCI  -4          
CHETEK         CLOUDY    11  -3  54 NE5       30.24S WCI   3          
LADYSMITH      CLOUDY    11   1  62 N9        30.24S WCI  -1          
EAU CLAIRE     CLOUDY    12  -1  56 NE10      30.21F WCI  -1          
MENOMONIE      CLOUDY    10  -6  48 N9        30.23S WCI  -3          
NEW RICHMOND   CLOUDY    11  -6  46 NE9       30.24S WCI  -2          
OSCEOLA        CLOUDY    10  -4  54 NE8       30.29S WCI  -3          
$$
 
WIZ003>005-009-010-017-018-182100-
NORTH CENTRAL WISCONSIN
  
CITY           SKY/WX    TMP DP  RH WIND       PRES   REMARKS
MANITOWISH WTR FAIR       6  -4  61 N7        30.20S WCI  -5          
ARBOR VITAE    PTSUNNY   11   2  67 N7        30.19S WCI   1          
WOODRUFF       PTSUNNY   11   2  67 N7        30.19S WCI   1          
RHINELANDER    PTSUNNY   12   0  58 NE7       30.18R WCI   1          
EAGLE RIVER    FAIR       8  -3  61 N7        30.18R WCI  -3          
LAND O LAKES   CLOUDY     6  -4  64 N9        30.21R WCI  -8          
PHILLIPS       PTSUNNY    8  -1  65 N7        30.20S WCI  -3          
TOMAHAWK       CLOUDY    11  -1  60 NW3       30.18F                  
MEDFORD        CLOUDY    10   0  61 N8        30.16F WCI  -1          
MERRILL        CLOUDY    12   1  59 NE8       30.20F WCI   1          
$$
 
WIZ029-030-035-036-043>047-182100-
CENTRAL WISCONSIN
  
CITY           SKY/WX    TMP DP  RH WIND       PRES   REMARKS
WAUSAU         CLOUDY    12   0  58 NW7       30.18F WCI   1          
MOSINEE        PTSUNNY   12   3  67 N7        30.20F WCI   2          
MARSHFIELD     CLOUDY    14   3  61 NE8       30.17F WCI   3          
STEVENS POINT  CLOUDY    15   0  53 NE5       30.20F WCI   7          
WAUPACA        CLOUDY    19   4  51 SE3       30.22F                  
WAUTOMA        CLOUDY    18   3  52 NE6       30.22F WCI  10          
WISC RAPIDS    CLOUDY    16  -1  47 NE7       30.20F WCI   6          
CAMP DOUGLAS   FLURRIES  18   1  49 NE6       30.19F WCI   9          
$$
 
WIZ011>013-019>022-031-037>040-048>050-182100-
NORTHEAST WISCONSIN
  
CITY           SKY/WX    TMP DP  RH WIND       PRES   REMARKS
ANTIGO         FAIR      11   2  66 N8        30.17F WCI  -1          
SHAWANO        FAIR      19   2  46 NW5       30.22S WCI  13          
OCONTO         FAIR      18   3  51 NW5       30.25R WCI  11          
STURGEON BAY   FAIR      18   8  65 N9        30.25R WCI   7          
GREEN BAY      PTSUNNY   19   6  57 NW8       30.24R WCI   9          
MANITOWOC      CLOUDY    19   8  62 NW7       30.24R WCI  10          
APPLETON       CLOUDY    18   1  49 N5        30.21R WCI  11          
CLINTONVILLE   PTSUNNY   19   3  51 CALM      30.23S                  
OSHKOSH        CLOUDY    18   7  62 E3        30.22S                  
$$
 
WIZ032>034-041-042-053>061-182100-
SOUTHWEST WISCONSIN
  
CITY           SKY/WX    TMP DP  RH WIND       PRES   REMARKS
LA CROSSE      LGT SNOW  16  12  84 NE3       30.22F VSB 3/4          
SPARTA         FLURRIES  17   6  62 CALM      30.21F                  
VIROQUA        CLOUDY    15  13  91 NE12      30.14F VSB 3/4 WCI   2  
BOSCOBEL       SNOW      19  15  84 VRB7      30.18F VSB 1/2 WCI  10  
PRAIRIE DU CHI LGT SNOW  18  13  80 NE8       30.16F VSB 1   WCI   8  
PLATTEVILLE    CLOUDY    21  19  95 NE9       30.13F WCI  10          
$$

WIZ056-057-062-063-064-067-068-182100-
SOUTH CENTRAL WISCONSIN
  
CITY           SKY/WX    TMP DP  RH WIND       PRES   REMARKS
REEDSBURG      LGT SNOW  16  12  84 NE7       30.19F WCI   6          
BARABOO/DELLS  LGT SNOW  16  11  80 NE8       30.18F WCI   5          
LONE ROCK      LGT SNOW  19  13  77 E9        30.19F VSB 3/4 WCI   8  
MINERAL POINT  LGT SNOW  21  19  93 NE13      30.12F WCI   9          
MADISON        FLURRIES  21   5  50 NE12      30.18F WCI   9          
MIDDLETON      CLOUDY    22   8  54 NE12      30.18F WCI  11          
WATERTOWN      CLOUDY    21   8  55 N7        30.19F WCI  13          
MONROE         LGT SNOW  21  18  86 MISG      30.14R                  
JANESVILLE     CLOUDY    27  16  63 NE15      30.16F WCI  15          
$$
 
WIZ051-052-058>065-066-070>072-182100-
SOUTHEAST WISCONSIN
  
CITY           SKY/WX    TMP DP  RH WIND       PRES   REMARKS
MILWAUKEE      CLOUDY    25   9  50 NE8       30.21R WCI  16          
WAUKESHA       CLOUDY    21   7  53 NE5       30.20S WCI  15          
MILWAUKEE/TIMM CLOUDY    25   3  39 NE5       30.21S WCI  19          
RACINE         CLOUDY    25  14  63 NE10      30.22S WCI  15          
KENOSHA        CLOUDY    27  17  66 NE9       30.19F WCI  18          
FOND DU LAC    CLOUDY    18   6  59 N5        30.22S WCI  11          
SHEBOYGAN      CLOUDY    20   6  55 NW6       30.23R WCI  12          
WEST BEND      CLOUDY    21   9  58 CALM      30.21R                  
JUNEAU         CLOUDY    18   7  60 N6        30.21F WCI  10          
$$

LSZ147-162-182100-
LAKE SUPERIOR
  
STATION/POSITION TIME  TEMP    WIND        PRES    WAVE
                       AIR SEA DIR/SP/G            HT/PER
                 (UTC) (F)     (DEG/KT/KT) (MB)    (FT/S)
DEVILS ISLAND    2000    4      20/ 12/ 15 1030.0R
SAXON HARBOR     1940   10      30/ 10/ 12 1026.4S
$$
 
LMZ867-665-643>646-182100-
LAKE MICHIGAN
  
STATION/POSITION TIME  TEMP    WIND        PRES    WAVE
                       AIR SEA DIR/SP/G            HT/PER
                 (UTC) (F)     (DEG/KT/KT) (MB)    (FT/S)
CHAMBERS ISLAND  1940   18     360/  7/ 10 1023.0R
NORTHPORT PIER   1947   17     340/ 10/ 13 1023.7R
KEWAUNEE LAKESHO 1954   17     330/  7/  9 1022.9R
SHEBOYGAN LAKESH 2000   19     330/  8/ 11 1024.8R
PORT WASHINGTON  1930   22     320/  4/  7 1024.7R
KENOSHA   LAKESH 2000   25      30/ 12/ 14 1022.7
$$

TC  - TEMPERATURE IN CELSIUS
VSB - VISIBILITY IN STATUTE MILES
WCI - WIND CHILL INDEX
HX  - HEAT INDEX